GAOFEN 3 DEB, 42680

Orbit data source: Space-Track

GAOFEN 3 DEB, 42680 is space debris in SSO originally from a launch on Tue, 09 Aug 2016 UTC launched from the Taiyaun Space Center, China (TSC). Debris objects in space refer to the collection of defunct objects orbiting the Earth. Examples of debris include non-operational satellites, rocket bodies, and fragments generated from explosions, collisions, or faulty payload assembly.

Loading next visibility...
Identifier
42680, 2016-049E
Orbit
SSO
Country
Flag of CNCN / PRC
Related business
Manufacturer
Unknown
Mission
Spacecraft
Bus & Motor
Unknown
Mass
Unknown
Launch date (UTC)
2016-08-09 (9 years ago)
Launch vehicle
Unknown
Launch site
Taiyaun Space Center, China (TSC)
Object type
Payload
Rocket body
Debris
Shape & HBR
Unknown shape, 0.1 m
Radar Cross Section
Small (<0.1 m²)

Expand to show TLE details & history
Last TLE update: 19 hours ago

TLE from 19 hours ago
0 GAOFEN 3 DEB
1 42680U 16049E   26035.76339332  .00002525  00000-0  64171-3 0  9998
2 42680  98.4310  50.9727 0016740 149.9082 210.3078 14.51512387497130
Epoch: 2026-02-04T18:19Z
TLE epoch observation values (Epoch: 2026-02-04T18:19:17.182Z)
Latitude
-0.00005°
Longitude
1.22581°
Altitude
733.946 km
Speed
7.483 km/s
True Right ascension
03h 23m 53s
True Declination
0° 00' 00"
Sunlit
Object was in daylight at epoch
Visualization orbit readout
Latitude
Unknown
Longitude
Unknown
Altitude
Unknown
Speed
Unknown
Apparent Right ascension
Unknown
Apparent Declination
Unknown
Sunlit
N/A
Visualization observer readout
Local Sidereal Time
15:19:08
Azimuth
Unknown
Elevation
Unknown
Doppler factor
Unknown
Orbital elements
Apogee altitude
729.695 km
Perigee altitude
705.938 km
Semi-major axis
7,095.953 km
Eccentricity
0.00167
Inclination
98.431°
RAAN
50.9727°
Arg. of periapsis
149.9082°
True anomaly
210.21117°
Mean anomaly
210.3078°
Eccentric anomaly
210.25947°
Mean motion
3.63101 °/min
Orbital period
99.15 mins
BSTAR
0.00064171
Loading maneuver chart data...
Computing Atmospheric mass density...
Loading historical data...
Loading historical data...
Loading historical data...
Loading historical data...
Loading historical data...
Loading historical data...
Loading historical data...
Other satellites on launch #49 in the year 2016 (2016-08-09 UTC)

Documentation

Showing up to 5 results
|